Flag for Romania Weather past 2 weeks in Constanța, Romania

Now
51 °F

Scattered clouds.


Feels Like: 49 °F
Forecast: 37 / 47 °F
Wind: 5 mph from Northwest

Location: Constanta

Current Time: Mar 4, 2015 at 6:24:06 PM

Latest Report: Mar 4, 2015 at 5:00 PM


Visibility: 6 mi

Pressure: 30.26 "Hg

Humidity: 41%

Dew point: 28 °F

Location of ConstanțaLocation

Historic Weather in Constanța — Graph

°F

Constanța temperature yesterday

Maximum temperature yesterday: 47 °F (at 12:00 PM)
Minimum temperature yesterday: 39 °F (at 11:00 PM)
Average temperature yesterday: 44 °F

Past Weeks' High & Low Weather Summary

 TemperatureHumidityPressure
High57 °F (Feb 26, 4:00 PM)100% (Feb 21, 3:00 AM)30.60 "Hg (Feb 21, 3:00 AM)
Low22 °F (Feb 18, 7:00 AM)35% (Mar 4, 3:00 PM)29.76 "Hg (Feb 24, 5:00 PM)
Average40 °F85%30.09 "Hg
* Reported Feb 17 5:00 PM — Mar 4 5:00 PM, Constanța, Weather by CustomWeather, © 2015

Note: Actual official high and low records may vary slightly from our data, if they occured in-between our weather recording intervals... More about our weather records

Advertising

Constanța weather history for previous 24 hours

 ConditionsComfort  
Time TempWeatherWind HumidityBarometerVisibility
5:00 PM
Wed, Mar 4
51 °FScattered clouds.5 mph41%30.26 "Hg6 mi
4:00 PM51 °FScattered clouds.5 mph43%30.27 "Hg6 mi
3:00 PM51 °FSunny.6 mph35%30.28 "Hg6 mi
2:00 PM51 °FPassing clouds.5 mph36%30.29 "Hg6 mi
1:00 PM50 °FPassing clouds.3 mph47%30.31 "Hg6 mi
12:00 PM47 °FSunny.5 mph57%30.32 "Hg6 mi
11:00 AM45 °FSunny.5 mph65%30.32 "Hg6 mi
10:00 AM42 °FSunny.5 mph76%30.32 "Hg6 mi
9:00 AM40 °FSunny.3 mph79%30.32 "Hg6 mi
8:00 AM37 °FPassing clouds.2 mph83%30.30 "Hg6 mi
7:00 AM37 °FPartly sunny.2 mph83%30.27 "Hg6 mi
6:00 AM39 °FPassing clouds.5 mph81%30.25 "Hg6 mi
4:00 AM39 °FLight rain. Overcast.2 mph90%30.22 "Hg6 mi
3:00 AM40 °FLight rain. Overcast.2 mph89%30.21 "Hg6 mi
2:00 AM40 °FLight rain. Overcast.5 mph85%30.18 "Hg6 mi
1:00 AM38 °FLight rain. Overcast.6 mph92%30.16 "Hg6 mi
12:00 AM38 °FLight rain. Overcast.2 mph98%30.15 "Hg6 mi
11:00 PM
Tue, Mar 3
39 °FLight rain. Overcast.3 mph93%30.13 "Hg6 mi
10:00 PM43 °FOvercast.2 mph83%30.09 "Hg6 mi
9:00 PM43 °FPassing clouds.2 mph82%30.08 "Hg6 mi
8:00 PM43 °FPassing clouds.2 mph82%30.06 "Hg6 mi
7:00 PM44 °FPassing clouds.No wind78%30.03 "Hg6 mi
6:00 PM44 °FPassing clouds.2 mph78%30.01 "Hg6 mi
Weather by CustomWeather, © 2015

See weather overviewHow to use our weather pages